CW4358 Weather Reports


Display with metric or nautical units.
time (UTC)temp
F
wind
direction
speed
MPH
gust
MPH
rain 1hr
in
rain 24hr
in
rain mn
in
humidity
%
barometer
mb
20260505124529 60 69 1.0 0.0 0.00 0.00 0.00 84 1016.1
20260505124333 60 30 1.0 6.0 0.00 0.01 0.00 85 1016.2
20260505123834 59 298 2.0 4.0 0.00 0.01 0.00 86 1016.2
20260505123402 59 325 0.0 3.0 0.00 0.01 0.00 86 1016.3
20260505123003 58 41 0.0 0.0 0.00 0.00 0.00 87 1016.1
20260505122841 58 42 1.0 3.0 0.00 0.01 0.00 87 1016.3
20260505122409 58 173 0.0 2.0 0.00 0.01 0.00 87 1016.3
20260505121849 57 169 0.0 3.0 0.00 0.01 0.00 88 1016.3
20260505121527 56 329 0.0 0.0 0.00 0.00 0.00 89 1016.1
20260505121347 57 246 1.0 3.0 0.00 0.01 0.00 89 1016.2
20260505120847 56 355 0.0 2.0 0.00 0.01 0.00 92 1016.2
20260505120341 56 40 0.0 2.0 0.00 0.01 0.00 90 1016.2
20260505120052 55 40 0.0 0.0 0.00 0.00 0.00 90 1016.0
20260505115910 56 40 1.0 2.0 0.00 0.01 0.00 90 1016.2
20260505115348 55 92 0.0 2.0 0.00 0.01 0.00 90 1016.2
20260505114849 55 349 1.0 2.0 0.00 0.01 0.00 91 1016.2
20260505114521 54 196 0.0 0.0 0.00 0.00 0.00 91 1016.1
20260505114350 54 360 0.0 2.0 0.00 0.01 0.00 91 1016.2
20260505113830 54 360 0.0 0.0 0.00 0.01 0.00 91 1016.2
20260505113331 53 360 0.0 0.0 0.00 0.01 0.00 91 1016.1
20260505113015 53 360 0.0 0.0 0.00 0.00 0.00 91 1015.9
20260505112831 53 360 0.0 0.0 0.00 0.01 0.00 91 1016.0
20260505112333 53 360 0.0 0.0 0.00 0.01 0.00 90 1016.0
20260505111832 53 360 0.0 0.0 0.00 0.01 0.00 90 1015.9
20260505111503 52 360 0.0 0.0 0.00 0.00 0.00 90 1015.7
20260505111331 53 360 0.0 0.0 0.00 0.01 0.00 90 1015.9
20260505110854 53 360 0.0 0.0 0.00 0.01 0.00 90 1015.7
20260505110345 53 360 0.0 0.0 0.00 0.01 0.00 90 1015.6
20260505101838 53 360 0.0 0.0 0.00 0.01 0.00 89 1015.2
20260505101534 52 360 0.0 0.0 0.00 0.00 0.00 89 1015.1
20260505101337 53 360 0.0 0.0 0.00 0.01 0.00 89 1015.2
20260505100837 53 360 0.0 0.0 0.00 0.01 0.00 89 1015.1
20260505100349 53 360 0.0 0.0 0.00 0.01 0.00 89 1015.1
20260505100053 52 360 0.0 0.0 0.00 0.00 0.00 89 1015.0
20260505095830 53 360 0.0 0.0 0.00 0.01 0.00 88 1015.1
20260505095358 53 360 0.0 0.0 0.00 0.01 0.00 88 1015.1
20260505094838 53 360 0.0 0.0 0.00 0.01 0.00 88 1015.0
20260505094525 53 360 0.0 0.0 0.00 0.00 0.00 88 1014.9
20260505094341 53 360 0.0 0.0 0.00 0.01 0.00 88 1015.0
20260505093841 53 360 0.0 0.0 0.00 0.01 0.00 87 1015.0
20260505093343 54 360 0.0 0.0 0.00 0.01 0.00 87 1014.9
20260505093013 53 360 0.0 0.0 0.00 0.00 0.00 87 1014.9
20260505092844 54 360 0.0 0.0 0.00 0.01 0.00 87 1014.9
20260505092339 54 360 0.0 0.0 0.00 0.01 0.00 87 1015.0
20260505091838 54 360 0.0 0.0 0.00 0.01 0.00 87 1014.9
20260505091503 53 360 0.0 0.0 0.00 0.00 0.00 87 1014.8
20260505091340 54 360 0.0 0.0 0.00 0.01 0.00 87 1014.9
20260505090839 54 360 0.0 0.0 0.00 0.01 0.00 87 1014.8
20260505090350 54 360 0.0 0.0 0.00 0.01 0.00 86 1014.9
20260505090025 54 360 0.0 0.0 0.00 0.00 0.00 86 1014.8
20260505085852 54 360 0.0 0.0 0.00 0.01 0.00 86 1014.9
20260505085351 54 360 0.0 0.0 0.00 0.01 0.00 86 1014.8
20260505084849 55 360 0.0 0.0 0.00 0.01 0.00 86 1014.7
20260505084516 54 360 0.0 0.0 0.00 0.00 0.00 85 1014.5
20260505084349 55 360 0.0 0.0 0.00 0.01 0.00 85 1014.7
20260505083830 55 360 0.0 0.0 0.00 0.01 0.00 85 1014.7
20260505083331 55 360 0.0 0.0 0.00 0.01 0.00 85 1014.7
20260505083117 55 360 0.0 0.0 0.00 0.00 0.00 85 1014.6
20260505083003 55 360 0.0 0.0 0.00 0.00 0.00 85 1014.6
20260505082831 55 360 0.0 0.0 0.00 0.01 0.00 85 1014.7
20260505082334 55 360 0.0 0.0 0.00 0.01 0.00 84 1014.7
20260505081831 55 360 0.0 0.0 0.00 0.01 0.00 84 1014.6
20260505081548 55 360 0.0 0.0 0.00 0.00 0.00 84 1014.5
20260505081335 56 360 0.0 0.0 0.00 0.01 0.00 84 1014.6
20260505080837 56 360 0.0 0.0 0.00 0.01 0.00 84 1014.5
20260505080330 56 360 0.0 0.0 0.00 0.01 0.00 84 1014.4
20260505080027 55 360 0.0 0.0 0.00 0.00 0.00 83 1014.3
20260505075830 56 360 0.0 0.0 0.00 0.01 0.00 83 1014.5
20260505075330 56 360 0.0 0.0 0.00 0.01 0.00 83 1014.4
20260505074831 56 360 0.0 0.0 0.00 0.01 0.00 83 1014.4
20260505074558 56 360 0.0 0.0 0.00 0.00 0.00 83 1014.3
20260505074332 56 360 0.0 0.0 0.00 0.01 0.00 82 1014.4
20260505073833 57 360 0.0 0.0 0.00 0.01 0.00 82 1014.3
20260505073335 57 360 0.0 0.0 0.00 0.01 0.00 82 1014.3
20260505073047 56 360 0.0 0.0 0.00 0.00 0.00 82 1014.3
20260505072837 57 360 0.0 1.0 0.00 0.01 0.00 82 1014.4
20260505072337 57 360 0.0 1.0 0.00 0.01 0.00 82 1014.4
20260505071838 57 360 0.0 0.0 0.00 0.01 0.00 82 1014.4
20260505071541 57 360 0.0 0.0 0.00 0.00 0.00 81 1014.1
20260505071336 57 360 0.0 0.0 0.00 0.01 0.00 81 1014.3
20260505070902 58 360 0.0 1.0 0.00 0.01 0.00 81 1014.2
20260505070333 58 360 0.0 1.0 0.00 0.01 0.00 81 1014.2
20260505070052 57 360 0.0 0.0 0.00 0.00 0.00 81 1014.1
20260505065831 58 360 0.0 0.0 0.00 0.01 0.00 80 1014.3
20260505065331 58 360 0.0 1.0 0.00 0.01 0.00 80 1014.2
20260505064919 58 360 0.0 1.0 0.00 0.01 0.00 80 1014.2
20260505064516 58 360 0.0 0.0 0.00 0.00 0.00 80 1014.1
20260505064359 59 360 0.0 0.0 0.00 0.01 0.00 80 1014.3
20260505063839 59 360 0.0 0.0 0.00 0.01 0.00 81 1014.3
20260505063339 59 360 0.0 1.0 0.00 0.01 0.00 81 1014.3
20260505063049 59 360 0.0 0.0 0.00 0.00 0.00 81 1014.2
20260505062841 59 360 0.0 1.0 0.00 0.01 0.00 81 1014.3
20260505062339 59 360 0.0 1.0 0.00 0.01 0.00 80 1014.2
20260505061840 59 360 0.0 1.0 0.00 0.01 0.00 81 1014.2
20260505061537 59 360 0.0 0.0 0.00 0.00 0.00 80 1014.2
20260505061340 59 360 0.0 0.0 0.00 0.01 0.00 79 1014.3
20260505060909 60 360 0.0 0.0 0.00 0.01 0.00 79 1014.3
20260505060400 60 360 0.0 1.0 0.00 0.01 0.00 79 1014.3
20260505060012 59 360 0.0 0.0 0.00 0.00 0.00 78 1014.1
20260505055840 60 360 0.0 1.0 0.00 0.01 0.00 78 1014.4
20260505055341 60 360 0.0 0.0 0.00 0.01 0.00 78 1014.2
20260505054840 61 360 0.0 0.0 0.00 0.01 0.00 78 1014.3
20260505054607 60 360 0.0 0.0 0.00 0.00 0.00 79 1014.2
20260505054343 61 360 0.0 1.0 0.00 0.01 0.00 79 1014.4
20260505053844 61 360 0.0 1.0 0.00 0.01 0.00 79 1014.4
20260505053347 61 360 0.0 0.0 0.00 0.01 0.00 79 1014.5
20260505053055 61 360 0.0 0.0 0.00 0.00 0.00 78 1014.3
20260505052843 61 360 0.0 1.0 0.00 0.01 0.00 77 1014.5
20260505052343 61 360 0.0 2.0 0.00 0.01 0.00 76 1014.5
20260505051844 61 360 0.0 2.0 0.00 0.01 0.00 76 1014.5
20260505051538 61 339 0.0 0.0 0.00 0.00 0.00 76 1014.4
20260505051344 62 338 0.0 4.0 0.00 0.01 0.00 76 1014.6
20260505050844 62 339 0.0 4.0 0.00 0.01 0.00 76 1014.6
20260505050358 62 360 1.0 2.0 0.00 0.01 0.00 76 1014.6
20260505041608 63 360 1.0 0.0 0.00 0.00 0.00 72 1014.3
20260505041344 64 360 1.0 3.0 0.00 0.01 0.00 72 1014.4
20260505040844 64 11 0.0 3.0 0.00 0.01 0.00 72 1014.4
20260505040357 64 25 0.0 3.0 0.00 0.01 0.00 71 1014.4
20260505040014 63 25 1.0 0.0 0.00 0.00 0.01 71 1014.3
20260505035850 64 79 1.0 4.0 0.00 0.01 0.01 72 1014.5
20260505035350 64 122 0.0 4.0 0.00 0.01 0.01 71 1014.4
20260505034850 64 24 1.0 6.0 0.00 0.01 0.01 74 1014.3
20260505034549 63 24 1.0 0.0 0.00 0.00 0.01 72 1014.3
20260505034330 64 122 2.0 6.0 0.00 0.01 0.01 73 1014.3
20260505033831 64 355 1.0 3.0 0.00 0.01 0.01 73 1014.4
20260505033334 64 19 1.0 3.0 0.00 0.01 0.01 73 1014.3
20260505033037 64 346 1.0 0.0 0.00 0.00 0.01 72 1014.3
20260505032832 65 355 1.0 3.0 0.00 0.01 0.01 71 1014.4
20260505032334 65 15 1.0 3.0 0.00 0.01 0.01 70 1014.4
20260505031834 65 293 1.0 2.0 0.00 0.01 0.01 71 1014.5
20260505031529 64 21 1.0 0.0 0.00 0.00 0.01 71 1014.3
20260505031335 65 15 1.0 5.0 0.00 0.01 0.01 71 1014.4
20260505030833 65 339 0.0 5.0 0.00 0.01 0.01 70 1014.5
20260505030344 65 355 0.0 5.0 0.00 0.01 0.01 70 1014.5
20260505030049 65 251 1.0 0.0 0.00 0.00 0.01 71 1014.3
20260505025846 66 17 1.0 5.0 0.00 0.01 0.01 71 1014.4
20260505025347 66 13 2.0 5.0 0.00 0.01 0.01 68 1014.4
20260505024848 66 9 1.0 3.0 0.00 0.01 0.01 70 1014.4
20260505024546 66 360 1.0 0.0 0.00 0.00 0.01 70 1014.3
20260505024350 66 340 1.0 4.0 0.00 0.01 0.01 70 1014.4
20260505023851 67 336 1.0 4.0 0.00 0.01 0.01 67 1014.4
20260505023417 67 342 1.0 3.0 0.00 0.01 0.01 68 1014.3
20260505023051 66 9 1.0 0.0 0.00 0.00 0.01 66 1014.2
20260505022857 67 288 1.0 3.0 0.00 0.01 0.01 67 1014.3
20260505022335 67 302 1.0 4.0 0.00 0.01 0.01 67 1014.1
20260505021837 67 5 1.0 4.0 0.00 0.01 0.01 67 1014.2
20260505021518 67 36 1.0 0.0 0.00 0.00 0.01 68 1014.1
20260505021338 67 336 0.0 5.0 0.00 0.01 0.01 68 1014.2
20260505020908 67 337 2.0 5.0 0.00 0.01 0.01 67 1014.1
20260505020341 67 10 2.0 4.0 0.00 0.01 0.01 67 1014.2
20260505020017 67 53 1.0 0.0 0.00 0.00 0.01 66 1014.1
20260505015840 67 40 1.0 3.0 0.00 0.01 0.01 67 1014.1
20260505015342 67 5 2.0 4.0 0.00 0.01 0.01 67 1014.1
20260505014844 67 355 1.0 4.0 0.00 0.01 0.01 66 1014.0
20260505014509 67 76 1.0 0.0 0.00 0.00 0.01 67 1014.0
20260505014408 67 82 2.0 4.0 0.00 0.01 0.01 66 1014.0
20260505013847 67 17 1.0 3.0 0.00 0.01 0.01 66 1013.9
20260505013347 67 346 0.0 4.0 0.00 0.01 0.01 65 1013.9
20260505013035 67 346 1.0 0.0 0.00 0.00 0.01 66 1013.7
20260505012850 67 351 0.0 4.0 0.00 0.01 0.01 65 1013.7
20260505012349 67 53 1.0 6.0 0.00 0.01 0.01 65 1013.5
20260505011849 66 55 2.0 6.0 0.00 0.01 0.01 65 1013.5
20260505011523 66 15 1.0 0.0 0.00 0.00 0.01 65 1013.4
20260505011330 66 286 0.0 3.0 0.00 0.01 0.01 65 1013.5
20260505010829 66 323 1.0 2.0 0.00 0.01 0.01 68 1013.4
20260505010341 67 323 0.0 2.0 0.00 0.01 0.01 66 1013.4
20260505010046 66 323 0.0 0.0 0.00 0.00 0.01 66 1013.2
20260505005839 67 323 0.0 0.0 0.00 0.01 0.01 63 1013.2
20260505005340 67 322 0.0 0.0 0.00 0.01 0.01 63 1013.1
20260505004908 67 323 0.0 0.0 0.00 0.01 0.01 63 1013.1
20260505004521 67 322 0.0 0.0 0.00 0.00 0.01 61 1012.9
20260505004331 67 322 0.0 0.0 0.00 0.01 0.01 60 1013.0
20260505003855 68 322 0.0 0.0 0.00 0.01 0.01 59 1013.0
20260505003355 68 322 0.0 0.0 0.00 0.01 0.01 59 1012.9
20260505003041 68 323 0.0 0.0 0.00 0.00 0.01 60 1012.7
20260505002835 69 323 0.0 0.0 0.00 0.01 0.01 59 1012.8
20260505002335 69 323 0.0 0.0 0.00 0.01 0.01 60 1012.8
20260505001905 69 323 0.0 0.0 0.00 0.01 0.01 58 1012.8
20260505001515 69 323 0.0 0.0 0.00 0.00 0.01 56 1012.7
20260505001345 70 323 0.0 0.0 0.00 0.01 0.01 56 1012.7
20260505000844 70 323 0.0 0.0 0.00 0.01 0.01 55 1012.8
20260505000338 71 323 0.0 0.0 0.00 0.01 0.01 54 1012.7
20260505000040 70 323 0.0 0.0 0.00 0.00 0.01 55 1012.6
20260504235836 71 322 0.0 0.0 0.00 0.01 0.01 54 1012.7
20260504235337 71 323 0.0 0.0 0.00 0.01 0.01 54 1012.7
20260504234837 72 323 0.0 1.0 0.00 0.01 0.01 54 1012.6
20260504234523 71 323 0.0 0.0 0.00 0.00 0.01 54 1012.5
20260504234334 72 322 0.0 2.0 0.00 0.01 0.01 55 1012.6
20260504233836 72 322 1.0 2.0 0.00 0.01 0.01 52 1012.4
20260504233338 73 242 0.0 1.0 0.00 0.01 0.01 52 1012.4
20260504233020 73 242 0.0 0.0 0.00 0.00 0.01 52 1012.3
20260504232838 73 241 0.0 2.0 0.00 0.01 0.01 52 1012.4
20260504232340 74 242 1.0 2.0 0.00 0.01 0.01 50 1012.3
20260504231840 74 360 0.0 1.0 0.00 0.01 0.01 50 1012.2
20260504231521 74 360 0.0 0.0 0.00 0.00 0.01 49 1012.1
20260504231338 74 360 0.0 1.0 0.00 0.01 0.01 51 1012.2
20260504230840 75 360 1.0 3.0 0.00 0.01 0.01 48 1012.3
20260504230333 75 11 1.0 3.0 0.00 0.01 0.01 47 1012.2
20260504230032 74 360 1.0 0.0 0.00 0.00 0.01 45 1012.1
20260504225832 75 313 0.0 3.0 0.00 0.01 0.01 49 1012.2
20260504225334 76 5 1.0 3.0 0.00 0.01 0.01 47 1012.2
20260504224832 76 348 1.0 4.0 0.00 0.01 0.01 42 1012.2
20260504224527 75 272 1.0 0.0 0.00 0.00 0.01 43 1012.1
20260504224335 76 345 0.0 4.0 0.00 0.01 0.01 44 1012.3
20260504223833 76 65 1.0 4.0 0.00 0.01 0.01 47 1012.2
20260504223333 76 65 1.0 4.0 0.00 0.01 0.01 45 1012.1
20260504223015 76 81 1.0 0.0 0.00 0.00 0.01 45 1012.1
20260504222900 77 348 2.0 4.0 0.00 0.01 0.01 42 1012.1
20260504222341 77 314 1.0 4.0 0.00 0.01 0.01 43 1012.2
20260504221839 77 342 2.0 4.0 0.00 0.01 0.01 45 1012.1
20260504221548 77 350 1.0 0.0 0.00 0.00 0.01 45 1012.2
20260504221407 78 351 2.0 4.0 0.00 0.01 0.01 40 1012.1
20260504220848 78 314 1.0 4.0 0.00 0.01 0.01 43 1012.2
20260504220340 78 338 2.0 4.0 0.00 0.01 0.01 38 1012.2
20260504220039 78 337 1.0 0.0 0.00 0.00 0.01 43 1012.1
20260504215839 78 71 2.0 4.0 0.00 0.01 0.01 42 1012.1
20260504215338 79 258 1.0 3.0 0.00 0.01 0.01 37 1012.1
20260504214902 79 59 1.0 6.0 0.00 0.01 0.01 41 1012.2
20260504214514 79 115 1.0 0.0 0.00 0.00 0.01 36 1012.2
20260504214409 80 244 3.0 6.0 0.00 0.01 0.01 36 1012.2
20260504213831 81 302 0.0 4.0 0.00 0.01 0.01 38 1012.2
20260504213335 81 25 2.0 4.0 0.00 0.01 0.01 41 1012.3
20260504213037 80 5 1.0 0.0 0.00 0.00 0.01 33 1012.3
20260504212837 81 21 2.0 4.0 0.00 0.01 0.01 34 1012.3
20260504212337 81 66 1.0 4.0 0.00 0.01 0.01 33 1012.2
20260504211836 81 295 1.0 4.0 0.00 0.01 0.01 35 1012.3
20260504211532 81 317 1.0 0.0 0.00 0.00 0.01 34 1012.2
20260504211405 81 9 1.0 4.0 0.00 0.01 0.01 33 1012.3
20260504210847 81 342 1.0 3.0 0.00 0.01 0.01 42 1012.3
20260504210340 81 55 2.0 3.0 0.00 0.01 0.01 33 1012.3
20260504210050 81 65 1.0 0.0 0.00 0.00 0.01 36 1012.2
20260504205840 81 324 1.0 3.0 0.00 0.01 0.01 35 1012.3
20260504205339 81 273 2.0 4.0 0.00 0.01 0.01 33 1012.4
20260504204836 81 207 2.0 4.0 0.00 0.01 0.01 32 1012.4
20260504204523 81 181 2.0 0.0 0.00 0.00 0.01 35 1012.3
20260504204335 81 15 2.0 4.0 0.00 0.01 0.01 32 1012.4
20260504203835 81 28 2.0 8.0 0.00 0.01 0.01 33 1012.4
20260504203335 81 65 4.0 8.0 0.00 0.01 0.01 34 1012.5
20260504203019 80 313 2.0 0.0 0.00 0.00 0.01 31 1012.5
20260504202838 81 242 2.0 6.0 0.00 0.01 0.01 34 1012.6
20260504202338 81 273 3.0 5.0 0.00 0.01 0.01 35 1012.6
20260504201839 81 62 2.0 4.0 0.00 0.01 0.01 36 1012.7
20260504201559 80 344 2.0 0.0 0.00 0.00 0.01 31 1012.7
20260504201338 81 173 2.0 3.0 0.00 0.01 0.01 34 1012.7
20260504200838 81 332 1.0 3.0 0.00 0.01 0.01 37 1012.7
20260504200349 80 240 1.0 5.0 0.00 0.01 0.01 31 1012.8
20260504200025 80 264 2.0 0.0 0.00 0.00 0.01 34 1012.7
20260504195851 80 244 3.0 5.0 0.00 0.01 0.01 32 1012.7
20260504195349 81 51 2.0 6.0 0.00 0.01 0.01 39 1012.7
20260504194831 80 41 3.0 6.0 0.00 0.01 0.01 32 1012.8
20260504194522 80 244 1.0 0.0 0.00 0.00 0.01 35 1012.8
20260504194415 81 41 1.0 3.0 0.00 0.01 0.01 33 1012.8
20260504193856 80 360 0.0 6.0 0.00 0.01 0.01 40 1012.9
20260504193333 80 110 2.0 6.0 0.00 0.01 0.01 33 1012.9
20260504193019 80 326 2.0 0.0 0.00 0.00 0.01 38 1012.9
20260504192835 81 304 1.0 4.0 0.00 0.01 0.01 37 1013.0
20260504192335 80 13 2.0 4.0 0.00 0.01 0.01 43 1013.1
20260504191836 80 230 1.0 3.0 0.00 0.01 0.01 35 1013.2
20260504191505 79 360 2.0 0.0 0.00 0.00 0.01 34 1013.2
20260504191337 80 266 1.0 4.0 0.00 0.01 0.01 42 1013.2
20260504190838 79 227 2.0 5.0 0.00 0.01 0.01 37 1013.3
20260504190332 80 350 1.0 5.0 0.00 0.01 0.01 40 1013.3
20260504190043 79 350 2.0 0.0 0.00 0.00 0.01 37 1013.5
20260504185900 79 132 1.0 5.0 0.00 0.01 0.01 35 1013.6
20260504185335 79 244 1.0 5.0 0.00 0.01 0.01 38 1013.5
20260504184836 79 229 2.0 6.0 0.00 0.01 0.01 36 1013.4
20260504184600 78 278 2.0 0.0 0.00 0.00 0.01 38 1013.5
20260504184503 78 22 2.0 0.0 0.00 0.00 0.01 35 1013.4
20260504184336 78 336 2.0 6.0 0.00 0.01 0.01 36 1013.5
20260504183838 78 171 2.0 5.0 0.00 0.01 0.01 39 1013.6
20260504183336 78 14 2.0 5.0 0.00 0.01 0.01 40 1013.6
20260504183047 78 13 2.0 0.0 0.00 0.00 0.01 41 1013.7
20260504182837 78 96 1.0 3.0 0.00 0.01 0.01 42 1013.7
20260504182335 78 360 1.0 6.0 0.00 0.01 0.01 42 1013.7
20260504181905 78 262 2.0 6.0 0.00 0.01 0.01 42 1013.8
20260504181518 78 128 1.0 0.0 0.00 0.00 0.01 41 1013.7
20260504181411 78 337 0.0 5.0 0.00 0.01 0.01 47 1013.8
20260504180830 77 232 1.0 5.0 0.00 0.01 0.01 43 1013.8
20260504180340 78 103 2.0 5.0 0.00 0.01 0.01 41 1013.8
20260504180007 77 338 2.0 0.0 0.00 0.00 0.01 42 1013.7
20260504175841 77 327 4.0 6.0 0.00 0.01 0.01 42 1013.8
20260504175407 77 274 2.0 6.0 0.00 0.01 0.01 47 1013.9
20260504174848 76 30 2.0 7.0 0.00 0.01 0.01 41 1014.1
20260504174531 76 306 2.0 0.0 0.00 0.00 0.01 39 1014.2
20260504174348 77 156 2.0 7.0 0.00 0.01 0.01 40 1014.2
20260504173847 77 311 2.0 4.0 0.00 0.01 0.01 42 1014.3
20260504173348 76 96 1.0 3.0 0.00 0.01 0.01 47 1014.3
20260504173022 76 336 2.0 0.0 0.00 0.00 0.01 41 1014.3
20260504172849 76 236 1.0 6.0 0.00 0.01 0.01 43 1014.4
20260504172331 76 238 1.0 6.0 0.00 0.01 0.01 42 1014.5
20260504171831 76 63 2.0 6.0 0.00 0.01 0.01 46 1014.6
20260504171509 76 334 2.0 0.0 0.00 0.00 0.01 48 1014.6
20260504171331 76 323 1.0 6.0 0.00 0.01 0.01 46 1014.6
20260504170833 76 48 0.0 5.0 0.00 0.01 0.01 47 1014.6
20260504170402 76 236 3.0 5.0 0.00 0.01 0.01 44 1014.7
20260504160336 72 26 1.0 5.0 0.00 0.01 0.01 54 1015.4
20260504150839 67 302 1.0 6.0 0.01 0.02 0.01 63 1015.7
20260504150352 67 229 2.0 6.0 0.01 0.02 0.01 62 1015.7
20260504140835 62 120 1.0 4.0 0.00 0.01 0.00 74 1015.8
20260504140347 61 253 1.0 4.0 0.00 0.01 0.00 76 1015.9
20260504130340 56 140 2.0 5.0 0.00 0.01 0.00 87 1016.2